Time,TemperatureF,DewpointF,PressureIn,WindDirection,WindDirectionDegrees,WindSpeedMPH,WindSpeedGustMPH,Humidity,HourlyPrecipIn,Conditions,Clouds,dailyrainin,SolarRadiationWatts/m^2,SoftwareType,DateUTC
2013-02-04 00:00:00,26.4,15.2,30.00,WSW,258,3.0,10.0,62,0.00,,,0.01,0,WeatherCatV1.13B119,2013-02-04 05:00:00,
2013-02-04 00:05:00,26.3,15.1,30.00,WSW,257,10.0,11.0,62,0.00,,,0.00,0,WeatherCatV1.13B119,2013-02-04 05:05:00,
2013-02-04 00:10:00,26.1,15.3,30.00,West,273,10.0,10.0,63,0.00,,,0.00,0,WeatherCatV1.13B119,2013-02-04 05:10:00,
2013-02-04 00:15:00,26.0,15.2,30.00,WSW,249,4.0,12.0,63,0.00,,,0.00,0,WeatherCatV1.13B119,2013-02-04 05:15:00,
2013-02-04 00:20:00,25.9,15.1,30.01,NW,309,5.0,7.0,63,0.00,,,0.00,0,WeatherCatV1.13B119,2013-02-04 05:20:00,
2013-02-04 00:25:00,25.8,14.6,30.01,WNW,289,7.0,10.0,62,0.00,,,0.00,0,WeatherCatV1.13B119,2013-02-04 05:25:00,
2013-02-04 00:30:00,25.7,14.5,30.01,West,275,3.0,6.0,62,0.00,,,0.00,0,WeatherCatV1.13B119,2013-02-04 05:30:00,
2013-02-04 00:35:00,25.6,14.8,30.01,NW,320,3.0,4.0,63,0.00,,,0.00,0,WeatherCatV1.13B119,2013-02-04 05:35:00,
2013-02-04 00:40:00,25.4,14.6,30.01,WNW,285,7.0,8.0,63,0.00,,,0.00,0,WeatherCatV1.13B119,2013-02-04 05:40:00,
2013-02-04 00:50:00,25.2,13.7,30.02,West,277,6.0,12.0,61,0.00,,,0.00,0,WeatherCatV1.13B119,2013-02-04 05:50:00,
2013-02-04 00:55:00,25.1,13.6,30.01,NW,305,6.0,14.0,61,0.00,,,0.00,0,WeatherCatV1.13B119,2013-02-04 05:55:00,
2013-02-04 01:00:00,25.1,13.6,30.02,WNW,287,12.0,15.0,61,0.00,,,0.00,0,WeatherCatV1.13B119,2013-02-04 06:00:00,
2013-02-04 01:05:00,25.0,13.5,30.01,WNW,300,8.0,16.0,61,0.00,,,0.00,0,WeatherCatV1.13B119,2013-02-04 06:05:00,
2013-02-04 01:10:00,24.9,13.0,30.02,NW,308,6.0,9.0,60,0.00,,,0.00,0,WeatherCatV1.13B119,2013-02-04 06:10:00,
2013-02-04 01:15:00,24.8,13.3,30.02,WNW,287,4.0,10.0,61,0.00,,,0.00,0,WeatherCatV1.13B119,2013-02-04 06:15:00,
2013-02-04 01:20:00,24.7,13.2,30.01,West,277,8.0,13.0,61,0.00,,,0.00,0,WeatherCatV1.13B119,2013-02-04 06:20:00,
2013-02-04 01:25:00,24.6,12.7,30.02,WNW,288,3.0,8.0,60,0.00,,,0.00,0,WeatherCatV1.13B119,2013-02-04 06:25:00,
2013-02-04 01:30:00,24.5,13.4,30.02,WNW,297,7.0,7.0,62,0.00,,,0.00,0,WeatherCatV1.13B119,2013-02-04 06:30:00,
2013-02-04 01:35:00,24.3,12.8,30.02,West,272,9.0,17.0,61,0.00,,,0.00,0,WeatherCatV1.13B119,2013-02-04 06:35:00,
2013-02-04 01:40:00,24.4,12.9,30.02,WSW,239,4.0,10.0,61,0.00,,,0.00,0,WeatherCatV1.13B119,2013-02-04 06:40:00,
2013-02-04 01:45:00,24.5,13.0,30.02,WNW,296,6.0,10.0,61,0.00,,,0.00,0,WeatherCatV1.13B119,2013-02-04 06:45:00,
2013-02-04 01:50:00,24.5,13.0,30.02,West,262,4.0,9.0,61,0.00,,,0.00,0,WeatherCatV1.13B119,2013-02-04 06:50:00,
2013-02-04 01:55:00,24.4,12.9,30.02,WNW,293,5.0,8.0,61,0.00,,,0.00,0,WeatherCatV1.13B119,2013-02-04 06:55:00,
2013-02-04 02:00:00,24.4,12.9,30.02,West,267,6.0,11.0,61,0.00,,,0.00,0,WeatherCatV1.13B119,2013-02-04 07:00:00,
2013-02-04 02:05:00,24.3,12.8,30.02,NW,310,9.0,15.0,61,0.00,,,0.00,0,WeatherCatV1.13B119,2013-02-04 07:05:00,
2013-02-04 02:10:00,24.4,12.9,30.03,West,265,7.0,10.0,61,0.00,,,0.00,0,WeatherCatV1.13B119,2013-02-04 07:10:00,
2013-02-04 02:15:00,24.4,13.3,30.02,WSW,254,5.0,8.0,62,0.00,,,0.00,0,WeatherCatV1.13B119,2013-02-04 07:15:00,
2013-02-04 02:20:00,24.3,13.2,30.02,West,266,3.0,8.0,62,0.00,,,0.00,0,WeatherCatV1.13B119,2013-02-04 07:20:00,
2013-02-04 02:25:00,24.3,13.2,30.02,WNW,298,5.0,10.0,62,0.00,,,0.00,0,WeatherCatV1.13B119,2013-02-04 07:25:00,
2013-02-04 02:30:00,24.4,13.3,30.02,West,271,8.0,11.0,62,0.00,,,0.00,0,WeatherCatV1.13B119,2013-02-04 07:30:00,
2013-02-04 02:35:00,24.5,13.4,30.03,NW,309,7.0,13.0,62,0.00,,,0.00,0,WeatherCatV1.13B119,2013-02-04 07:35:00,
2013-02-04 02:40:00,24.6,13.8,30.03,West,269,3.0,5.0,63,0.00,,,0.00,0,WeatherCatV1.13B119,2013-02-04 07:40:00,
2013-02-04 02:46:00,24.6,13.5,30.03,WNW,282,3.0,6.0,62,0.00,,,0.00,0,WeatherCatV1.13B119,2013-02-04 07:46:00,
2013-02-04 02:51:00,24.7,13.6,30.03,WSW,248,3.0,7.0,62,0.00,,,0.00,0,WeatherCatV1.13B119,2013-02-04 07:51:00,
2013-02-04 02:56:00,24.8,13.7,30.02,WSW,252,6.0,9.0,62,0.00,,,0.00,0,WeatherCatV1.13B119,2013-02-04 07:56:00,
2013-02-04 03:01:00,24.7,13.6,30.02,West,273,3.0,7.0,62,0.00,,,0.00,0,WeatherCatV1.13B119,2013-02-04 08:01:00,
2013-02-04 03:06:00,24.7,13.9,30.02,WNW,296,7.0,9.0,63,0.00,,,0.00,0,WeatherCatV1.13B119,2013-02-04 08:06:00,
2013-02-04 03:11:00,24.7,13.9,30.02,West,270,8.0,12.0,63,0.00,,,0.00,0,WeatherCatV1.13B119,2013-02-04 08:11:00,
2013-02-04 03:16:00,24.7,13.6,30.02,West,269,8.0,11.0,62,0.00,,,0.00,0,WeatherCatV1.13B119,2013-02-04 08:16:00,
2013-02-04 03:21:00,24.7,13.6,30.02,NW,310,12.0,13.0,62,0.00,,,0.00,0,WeatherCatV1.13B119,2013-02-04 08:21:00,
2013-02-04 03:26:00,24.7,13.6,30.02,WNW,290,7.0,9.0,62,0.00,,,0.00,0,WeatherCatV1.13B119,2013-02-04 08:26:00,
2013-02-04 03:31:00,24.6,13.5,30.02,NNW,332,4.0,14.0,62,0.00,,,0.00,0,WeatherCatV1.13B119,2013-02-04 08:31:00,
2013-02-04 03:36:00,24.6,13.8,30.02,West,266,7.0,7.0,63,0.00,,,0.00,0,WeatherCatV1.13B119,2013-02-04 08:36:00,
2013-02-04 03:41:00,24.5,13.4,30.02,West,278,6.0,14.0,62,0.00,,,0.00,0,WeatherCatV1.13B119,2013-02-04 08:41:00,
2013-02-04 03:46:00,24.5,13.7,30.02,WSW,244,8.0,11.0,63,0.00,,,0.00,0,WeatherCatV1.13B119,2013-02-04 08:46:00,
2013-02-04 03:51:00,24.6,13.5,30.02,West,264,8.0,11.0,62,0.00,,,0.00,0,WeatherCatV1.13B119,2013-02-04 08:51:00,
2013-02-04 03:56:00,24.6,13.5,30.02,West,259,1.0,6.0,62,0.00,,,0.00,0,WeatherCatV1.13B119,2013-02-04 08:56:00,
2013-02-04 04:01:00,24.5,13.4,30.02,NNW,335,3.0,7.0,62,0.00,,,0.00,0,WeatherCatV1.13B119,2013-02-04 09:01:00,
2013-02-04 04:06:00,24.5,13.4,30.02,WNW,283,7.0,22.0,62,0.00,,,0.00,0,WeatherCatV1.13B119,2013-02-04 09:06:00,
2013-02-04 04:11:00,24.6,13.5,30.02,NW,310,6.0,11.0,62,0.00,,,0.00,0,WeatherCatV1.13B119,2013-02-04 09:11:00,
2013-02-04 04:16:00,24.6,13.5,30.02,West,279,5.0,10.0,62,0.00,,,0.00,0,WeatherCatV1.13B119,2013-02-04 09:16:00,
2013-02-04 04:21:00,24.5,13.4,30.02,NW,306,13.0,13.0,62,0.00,,,0.00,0,WeatherCatV1.13B119,2013-02-04 09:21:00,
2013-02-04 04:26:00,24.5,13.4,30.02,WNW,303,7.0,14.0,62,0.00,,,0.00,0,WeatherCatV1.13B119,2013-02-04 09:26:00,
2013-02-04 04:31:00,24.6,13.5,30.02,WSW,258,8.0,9.0,62,0.00,,,0.00,0,WeatherCatV1.13B119,2013-02-04 09:31:00,
2013-02-04 04:36:00,24.5,13.4,30.02,WNW,288,10.0,15.0,62,0.00,,,0.00,0,WeatherCatV1.13B119,2013-02-04 09:36:00,
2013-02-04 04:41:00,24.5,13.4,30.02,WNW,298,2.0,8.0,62,0.00,,,0.00,0,WeatherCatV1.13B119,2013-02-04 09:41:00,
2013-02-04 04:46:00,24.4,13.3,30.02,West,279,1.0,7.0,62,0.00,,,0.00,0,WeatherCatV1.13B119,2013-02-04 09:46:00,
2013-02-04 04:51:00,24.3,13.2,30.02,WNW,283,7.0,7.0,62,0.00,,,0.00,0,WeatherCatV1.13B119,2013-02-04 09:51:00,
2013-02-04 04:56:00,24.3,13.5,30.02,WNW,289,6.0,7.0,63,0.00,,,0.00,0,WeatherCatV1.13B119,2013-02-04 09:56:00,
2013-02-04 05:01:00,24.3,13.2,30.02,SW,235,7.0,12.0,62,0.00,,,0.00,0,WeatherCatV1.13B119,2013-02-04 10:01:00,
2013-02-04 05:06:00,24.3,13.2,30.02,West,267,9.0,10.0,62,0.00,,,0.00,0,WeatherCatV1.13B119,2013-02-04 10:06:00,
2013-02-04 05:11:00,24.3,13.2,30.02,WNW,296,3.0,7.0,62,0.00,,,0.00,0,WeatherCatV1.13B119,2013-02-04 10:11:00,
2013-02-04 05:16:00,24.3,13.5,30.02,NNW,331,4.0,16.0,63,0.00,,,0.00,0,WeatherCatV1.13B119,2013-02-04 10:16:00,
2013-02-04 05:19:00,24.3,13.5,30.02,NW,305,16.0,16.0,63,0.00,,,0.00,0,WeatherCatV1.13B119,2013-02-04 10:19:00,
2013-02-04 05:24:00,24.4,13.3,30.02,West,271,6.0,11.0,62,0.00,,,0.00,0,WeatherCatV1.13B119,2013-02-04 10:24:00,
2013-02-04 05:29:00,24.4,13.6,30.03,West,264,8.0,9.0,63,0.00,,,0.00,0,WeatherCatV1.13B119,2013-02-04 10:29:00,
2013-02-04 05:34:00,24.5,13.7,30.03,WNW,299,7.0,15.0,63,0.00,,,0.00,0,WeatherCatV1.13B119,2013-02-04 10:34:00,
2013-02-04 05:39:00,24.5,13.4,30.03,WNW,294,6.0,11.0,62,0.00,,,0.00,0,WeatherCatV1.13B119,2013-02-04 10:39:00,
2013-02-04 05:42:00,24.5,13.7,30.03,WNW,302,2.0,4.0,63,0.00,,,0.00,0,WeatherCatV1.13B119,2013-02-04 10:42:00,
2013-02-04 05:49:00,24.4,13.6,30.04,WNW,298,4.0,7.0,63,0.00,,,0.00,0,WeatherCatV1.13B119,2013-02-04 10:49:00,
2013-02-04 05:52:00,24.4,13.6,30.03,WNW,289,6.0,10.0,63,0.00,,,0.00,0,WeatherCatV1.13B119,2013-02-04 10:52:00,
2013-02-04 05:54:00,24.4,13.3,30.03,West,261,2.0,8.0,62,0.00,,,0.00,0,WeatherCatV1.13B119,2013-02-04 10:54:00,
2013-02-04 05:59:00,24.4,13.6,30.04,NNW,329,2.0,7.0,63,0.00,,,0.00,0,WeatherCatV1.13B119,2013-02-04 10:59:00,
2013-02-04 06:04:00,24.4,13.6,30.04,WSW,237,3.0,5.0,63,0.00,,,0.00,0,WeatherCatV1.13B119,2013-02-04 11:04:00,
2013-02-04 06:11:00,24.5,13.7,30.04,West,278,4.0,4.0,63,0.00,,,0.00,0,WeatherCatV1.13B119,2013-02-04 11:11:00,
2013-02-04 06:16:00,24.5,13.7,30.05,WSW,257,2.0,4.0,63,0.00,,,0.00,0,WeatherCatV1.13B119,2013-02-04 11:16:00,
2013-02-04 06:21:00,24.5,13.7,30.05,WNW,285,3.0,7.0,63,0.00,,,0.00,0,WeatherCatV1.13B119,2013-02-04 11:21:00,
2013-02-04 06:26:00,24.5,13.7,30.05,West,263,8.0,9.0,63,0.00,,,0.00,0,WeatherCatV1.13B119,2013-02-04 11:26:00,
2013-02-04 06:31:00,24.6,14.2,30.05,West,269,4.0,6.0,64,0.00,,,0.00,0,WeatherCatV1.13B119,2013-02-04 11:31:00,
2013-02-04 06:36:00,24.6,13.8,30.05,WNW,295,5.0,9.0,63,0.00,,,0.00,0,WeatherCatV1.13B119,2013-02-04 11:36:00,
2013-02-04 06:41:00,24.6,13.8,30.05,West,262,4.0,8.0,63,0.00,,,0.00,0,WeatherCatV1.13B119,2013-02-04 11:41:00,
2013-02-04 06:46:00,24.6,13.8,30.05,WSW,244,2.0,9.0,63,0.00,,,0.00,0,WeatherCatV1.13B119,2013-02-04 11:46:00,
2013-02-04 06:51:00,24.5,13.7,30.05,WSW,258,4.0,6.0,63,0.00,,,0.00,0,WeatherCatV1.13B119,2013-02-04 11:51:00,
2013-02-04 06:56:00,24.4,13.6,30.05,SW,222,4.0,8.0,63,0.00,,,0.00,0,WeatherCatV1.13B119,2013-02-04 11:56:00,
2013-02-04 07:01:00,24.5,13.7,30.06,WNW,303,2.0,5.0,63,0.00,,,0.00,0,WeatherCatV1.13B119,2013-02-04 12:01:00,
2013-02-04 07:06:00,24.5,13.7,30.06,NW,325,1.0,5.0,63,0.00,,,0.00,0,WeatherCatV1.13B119,2013-02-04 12:06:00,
2013-02-04 07:11:00,24.6,13.5,30.06,SW,232,0.0,7.0,62,0.00,,,0.00,0,WeatherCatV1.13B119,2013-02-04 12:11:00,
2013-02-04 07:16:00,24.6,13.8,30.07,WSW,258,2.0,4.0,63,0.00,,,0.00,0,WeatherCatV1.13B119,2013-02-04 12:16:00,
2013-02-04 07:21:00,24.5,13.7,30.07,NW,325,1.0,5.0,63,0.00,,,0.00,5,WeatherCatV1.13B119,2013-02-04 12:21:00,
2013-02-04 07:26:00,24.3,14.3,30.07,ENE,76,2.0,2.0,65,0.00,,,0.00,7,WeatherCatV1.13B119,2013-02-04 12:26:00,
2013-02-04 07:31:00,24.2,13.8,30.08,SSE,155,3.0,3.0,64,0.00,,,0.00,9,WeatherCatV1.13B119,2013-02-04 12:31:00,
2013-02-04 07:36:00,24.0,14.3,30.08,West,273,0.0,3.0,66,0.00,,,0.00,12,WeatherCatV1.13B119,2013-02-04 12:36:00,
2013-02-04 07:41:00,23.8,14.8,30.08,WNW,300,2.0,4.0,68,0.00,,,0.00,14,WeatherCatV1.13B119,2013-02-04 12:41:00,
2013-02-04 07:46:00,23.8,14.8,30.08,NW,308,2.0,2.0,68,0.00,,,0.00,19,WeatherCatV1.13B119,2013-02-04 12:46:00,
2013-02-04 07:51:00,23.8,13.8,30.08,West,272,3.0,5.0,65,0.00,,,0.00,26,WeatherCatV1.13B119,2013-02-04 12:51:00,
2013-02-04 07:56:00,24.2,13.8,30.08,ENE,60,0.0,1.0,64,0.00,,,0.00,32,WeatherCatV1.13B119,2013-02-04 12:56:00,
2013-02-04 08:01:00,24.3,13.9,30.09,NNW,348,1.0,3.0,64,0.00,,,0.00,53,WeatherCatV1.13B119,2013-02-04 13:01:00,
2013-02-04 08:06:00,24.6,14.2,30.09,West,266,1.0,3.0,64,0.00,,,0.00,60,WeatherCatV1.13B119,2013-02-04 13:06:00,
2013-02-04 08:11:00,24.9,14.1,30.09,WNW,296,0.0,2.0,63,0.00,,,0.00,65,WeatherCatV1.13B119,2013-02-04 13:11:00,
2013-02-04 08:16:00,25.1,14.3,30.09,West,271,1.0,2.0,63,0.00,,,0.00,81,WeatherCatV1.13B119,2013-02-04 13:16:00,
2013-02-04 08:21:00,25.4,13.9,30.09,SW,236,2.0,2.0,61,0.00,,,0.00,88,WeatherCatV1.13B119,2013-02-04 13:21:00,
2013-02-04 08:26:00,25.6,14.4,30.09,SSW,213,2.0,5.0,62,0.00,,,0.00,116,WeatherCatV1.13B119,2013-02-04 13:26:00,
2013-02-04 08:31:00,25.8,14.2,30.09,SW,221,3.0,3.0,61,0.00,,,0.00,149,WeatherCatV1.13B119,2013-02-04 13:31:00,
2013-02-04 08:36:00,26.2,13.9,30.09,NW,310,2.0,4.0,59,0.00,,,0.00,146,WeatherCatV1.13B119,2013-02-04 13:36:00,
2013-02-04 08:41:00,26.5,14.9,30.09,NNW,327,0.0,3.0,61,0.00,,,0.00,156,WeatherCatV1.13B119,2013-02-04 13:41:00,
2013-02-04 08:46:00,26.9,14.5,30.09,WNW,296,1.0,4.0,59,0.00,,,0.00,169,WeatherCatV1.13B119,2013-02-04 13:46:00,
2013-02-04 08:51:00,27.3,14.5,30.09,WSW,245,0.0,3.0,58,0.00,,,0.00,156,WeatherCatV1.13B119,2013-02-04 13:51:00,
2013-02-04 08:56:00,27.6,15.2,30.10,WNW,290,2.0,3.0,59,0.00,,,0.00,155,WeatherCatV1.13B119,2013-02-04 13:56:00,
2013-02-04 09:01:00,27.6,14.8,30.09,East,101,2.0,5.0,58,0.00,,,0.00,209,WeatherCatV1.13B119,2013-02-04 14:01:00,
2013-02-04 09:06:00,27.7,14.5,30.10,East,79,1.0,2.0,57,0.00,,,0.00,160,WeatherCatV1.13B119,2013-02-04 14:06:00,
2013-02-04 09:11:00,27.9,15.1,30.09,WSW,242,2.0,3.0,58,0.00,,,0.00,181,WeatherCatV1.13B119,2013-02-04 14:11:00,
2013-02-04 09:16:00,28.0,15.2,30.10,WSW,239,1.0,4.0,58,0.00,,,0.00,167,WeatherCatV1.13B119,2013-02-04 14:16:00,
2013-02-04 09:21:00,28.0,15.2,30.10,SW,233,2.0,4.0,58,0.00,,,0.00,211,WeatherCatV1.13B119,2013-02-04 14:21:00,
2013-02-04 09:26:00,28.0,15.5,30.10,South,183,0.0,2.0,59,0.00,,,0.00,204,WeatherCatV1.13B119,2013-02-04 14:26:00,
2013-02-04 09:31:00,27.9,14.7,30.10,WSW,241,3.0,6.0,57,0.00,,,0.00,200,WeatherCatV1.13B119,2013-02-04 14:31:00,
2013-02-04 09:37:00,28.0,15.9,30.10,SW,231,1.0,3.0,60,0.00,,,0.00,214,WeatherCatV1.13B119,2013-02-04 14:37:00,
2013-02-04 09:42:00,28.2,15.7,30.09,West,280,4.0,4.0,59,0.00,,,0.00,218,WeatherCatV1.13B119,2013-02-04 14:42:00,
2013-02-04 09:44:00,28.3,15.0,30.10,WSW,241,1.0,6.0,57,0.00,,,0.00,227,WeatherCatV1.13B119,2013-02-04 14:44:00,
2013-02-04 09:49:00,28.6,15.3,30.10,WNW,292,1.0,5.0,57,0.00,,,0.00,251,WeatherCatV1.13B119,2013-02-04 14:49:00,
2013-02-04 09:54:00,28.8,15.5,30.10,SW,222,1.0,5.0,57,0.00,,,0.00,272,WeatherCatV1.13B119,2013-02-04 14:54:00,
2013-02-04 10:02:00,29.3,16.0,30.09,WSW,245,3.0,4.0,57,0.00,,,0.00,271,WeatherCatV1.13B119,2013-02-04 15:02:00,
2013-02-04 10:13:00,29.7,15.5,30.09,NW,325,4.0,6.0,55,0.00,,,0.00,297,WeatherCatV1.13B119,2013-02-04 15:13:00,
2013-02-04 10:18:00,29.5,15.3,30.08,WNW,286,3.0,5.0,55,0.00,,,0.00,239,WeatherCatV1.13B119,2013-02-04 15:18:00,
2013-02-04 10:23:00,29.6,15.4,30.08,WNW,287,4.0,7.0,55,0.00,,,0.00,301,WeatherCatV1.13B119,2013-02-04 15:23:00,
2013-02-04 10:28:00,29.6,15.0,30.08,WSW,247,5.0,6.0,54,0.00,,,0.00,320,WeatherCatV1.13B119,2013-02-04 15:28:00,
2013-02-04 10:31:00,29.6,15.0,30.08,WSW,254,3.0,9.0,54,0.00,,,0.00,313,WeatherCatV1.13B119,2013-02-04 15:31:00,
2013-02-04 10:36:00,29.9,14.9,30.08,WNW,296,6.0,7.0,53,0.00,,,0.00,288,WeatherCatV1.13B119,2013-02-04 15:36:00,
2013-02-04 10:41:00,30.2,16.0,30.08,WSW,242,4.0,4.0,55,0.00,,,0.00,302,WeatherCatV1.13B119,2013-02-04 15:41:00,
2013-02-04 10:46:00,30.2,14.7,30.08,WSW,240,6.0,10.0,52,0.00,,,0.00,338,WeatherCatV1.13B119,2013-02-04 15:46:00,
2013-02-04 10:51:00,30.5,15.9,30.07,West,279,4.0,7.0,54,0.00,,,0.00,387,WeatherCatV1.13B119,2013-02-04 15:51:00,
2013-02-04 10:56:00,30.9,16.7,30.07,West,266,2.0,3.0,55,0.00,,,0.00,406,WeatherCatV1.13B119,2013-02-04 15:56:00,
2013-02-04 11:01:00,31.4,16.3,30.07,WSW,239,3.0,3.0,53,0.00,,,0.00,446,WeatherCatV1.13B119,2013-02-04 16:01:00,
2013-02-04 11:06:00,31.6,16.5,30.07,SW,233,8.0,10.0,53,0.00,,,0.00,383,WeatherCatV1.13B119,2013-02-04 16:06:00,
2013-02-04 11:11:00,31.5,15.5,30.06,WSW,242,3.0,4.0,51,0.00,,,0.00,431,WeatherCatV1.13B119,2013-02-04 16:11:00,
2013-02-04 11:16:00,31.8,16.2,30.05,WNW,301,2.0,3.0,52,0.00,,,0.00,443,WeatherCatV1.13B119,2013-02-04 16:16:00,
2013-02-04 11:21:00,32.4,17.2,30.05,WNW,292,3.0,8.0,53,0.00,,,0.00,378,WeatherCatV1.13B119,2013-02-04 16:21:00,
2013-02-04 11:26:00,32.6,16.0,30.05,WNW,296,4.0,11.0,50,0.00,,,0.00,434,WeatherCatV1.13B119,2013-02-04 16:26:00,
2013-02-04 11:31:00,32.3,16.7,30.05,WSW,244,6.0,8.0,52,0.00,,,0.00,394,WeatherCatV1.13B119,2013-02-04 16:31:00,
2013-02-04 11:36:00,32.3,15.8,30.05,NW,310,9.0,10.0,50,0.00,,,0.00,429,WeatherCatV1.13B119,2013-02-04 16:36:00,
2013-02-04 11:41:00,32.6,16.0,30.04,West,271,7.0,7.0,50,0.00,,,0.00,399,WeatherCatV1.13B119,2013-02-04 16:41:00,
2013-02-04 11:46:00,32.9,16.3,30.04,West,271,4.0,4.0,50,0.00,,,0.00,403,WeatherCatV1.13B119,2013-02-04 16:46:00,
2013-02-04 11:51:00,33.4,16.3,30.03,West,273,5.0,7.0,49,0.00,,,0.00,406,WeatherCatV1.13B119,2013-02-04 16:51:00,
2013-02-04 11:56:00,33.5,16.9,30.03,West,273,6.0,6.0,50,0.00,,,0.00,461,WeatherCatV1.13B119,2013-02-04 16:56:00,
2013-02-04 12:01:00,33.9,16.8,30.03,WSW,250,7.0,9.0,49,0.00,,,0.00,497,WeatherCatV1.13B119,2013-02-04 17:01:00,
2013-02-04 12:08:00,34.1,17.0,30.03,WSW,250,2.0,8.0,49,0.00,,,0.00,504,WeatherCatV1.13B119,2013-02-04 17:08:00,
2013-02-04 12:13:00,34.4,17.2,30.03,WNW,300,4.0,7.0,49,0.00,,,0.00,515,WeatherCatV1.13B119,2013-02-04 17:13:00,
2013-02-04 12:18:00,34.7,17.0,30.03,West,266,5.0,10.0,48,0.00,,,0.00,501,WeatherCatV1.13B119,2013-02-04 17:18:00,
2013-02-04 12:21:00,35.0,17.3,30.03,WSW,252,2.0,6.0,48,0.00,,,0.00,512,WeatherCatV1.13B119,2013-02-04 17:21:00,
2013-02-04 12:26:00,35.1,18.4,30.03,SW,234,2.0,4.0,50,0.00,,,0.00,541,WeatherCatV1.13B119,2013-02-04 17:26:00,
2013-02-04 12:31:00,35.1,16.9,30.02,WSW,248,5.0,8.0,47,0.00,,,0.00,517,WeatherCatV1.13B119,2013-02-04 17:31:00,
2013-02-04 12:36:00,35.2,18.4,30.02,WSW,253,7.0,8.0,50,0.00,,,0.00,541,WeatherCatV1.13B119,2013-02-04 17:36:00,
2013-02-04 12:39:00,35.4,17.2,30.01,WNW,290,4.0,8.0,47,0.00,,,0.00,624,WeatherCatV1.13B119,2013-02-04 17:39:00,
2013-02-04 12:44:00,35.9,18.1,30.01,WSW,248,1.0,6.0,48,0.00,,,0.00,538,WeatherCatV1.13B119,2013-02-04 17:44:00,
2013-02-04 12:51:00,36.2,17.9,30.00,West,279,2.0,5.0,47,0.00,,,0.00,308,WeatherCatV1.13B119,2013-02-04 17:51:00,
2013-02-04 12:56:00,35.9,18.6,30.01,SSW,199,1.0,6.0,49,0.00,,,0.00,297,WeatherCatV1.13B119,2013-02-04 17:56:00,
2013-02-04 13:01:00,35.7,18.9,30.00,SSW,213,0.0,2.0,50,0.00,,,0.00,227,WeatherCatV1.13B119,2013-02-04 18:01:00,
2013-02-04 13:06:00,35.6,17.9,30.00,SW,229,0.0,3.0,48,0.00,,,0.00,241,WeatherCatV1.13B119,2013-02-04 18:06:00,
2013-02-04 13:11:00,35.5,17.3,30.00,SSE,157,0.0,2.0,47,0.00,,,0.00,229,WeatherCatV1.13B119,2013-02-04 18:11:00,
2013-02-04 13:16:00,35.4,18.6,30.00,West,278,3.0,3.0,50,0.00,,,0.00,207,WeatherCatV1.13B119,2013-02-04 18:16:00,
2013-02-04 13:21:00,35.4,18.2,29.99,South,172,0.0,2.0,49,0.00,,,0.00,225,WeatherCatV1.13B119,2013-02-04 18:21:00,
2013-02-04 13:26:00,35.6,18.3,29.99,ESE,113,2.0,3.0,49,0.00,,,0.00,225,WeatherCatV1.13B119,2013-02-04 18:26:00,
2013-02-04 13:28:00,35.6,17.9,29.99,SE,133,2.0,3.0,48,0.00,,,0.00,213,WeatherCatV1.13B119,2013-02-04 18:28:00,
2013-02-04 13:33:00,35.7,18.4,29.98,SW,225,1.0,2.0,49,0.00,,,0.00,230,WeatherCatV1.13B119,2013-02-04 18:33:00,
2013-02-04 13:38:00,35.9,18.1,29.99,SW,225,1.0,5.0,48,0.00,,,0.00,195,WeatherCatV1.13B119,2013-02-04 18:38:00,
2013-02-04 13:43:00,35.9,18.6,29.98,SW,233,0.0,3.0,49,0.00,,,0.00,193,WeatherCatV1.13B119,2013-02-04 18:43:00,
2013-02-04 13:48:00,35.8,17.6,29.98,SE,130,1.0,4.0,47,0.00,,,0.00,162,WeatherCatV1.13B119,2013-02-04 18:48:00,
2013-02-04 13:53:00,35.7,18.0,29.98,WSW,247,1.0,2.0,48,0.00,,,0.00,160,WeatherCatV1.13B119,2013-02-04 18:53:00,
2013-02-04 13:58:00,35.8,18.5,29.97,WSW,250,1.0,3.0,49,0.00,,,0.00,188,WeatherCatV1.13B119,2013-02-04 18:58:00,
2013-02-04 14:03:00,35.9,19.1,29.98,SW,222,0.0,1.0,50,0.00,,,0.00,171,WeatherCatV1.13B119,2013-02-04 19:03:00,
2013-02-04 14:04:00,36.0,19.2,29.98,SW,222,0.0,0.0,50,0.00,,,0.00,165,WeatherCatV1.13B119,2013-02-04 19:04:00,
2013-02-04 14:09:00,36.1,19.3,29.97,WSW,245,1.0,2.0,50,0.00,,,0.00,172,WeatherCatV1.13B119,2013-02-04 19:09:00,
2013-02-04 14:14:00,36.1,17.8,29.97,SW,227,0.0,0.0,47,0.00,,,0.00,142,WeatherCatV1.13B119,2013-02-04 19:14:00,
2013-02-04 14:19:00,36.1,18.3,29.97,SW,236,0.0,0.0,48,0.00,,,0.00,120,WeatherCatV1.13B119,2013-02-04 19:19:00,
2013-02-04 14:24:00,36.0,18.2,29.97,SE,133,2.0,3.0,48,0.00,,,0.00,142,WeatherCatV1.13B119,2013-02-04 19:24:00,
2013-02-04 14:29:00,35.9,19.1,29.96,WSW,248,0.0,2.0,50,0.00,,,0.00,142,WeatherCatV1.13B119,2013-02-04 19:29:00,
2013-02-04 14:34:00,35.9,19.1,29.96,West,277,0.0,1.0,50,0.00,,,0.00,98,WeatherCatV1.13B119,2013-02-04 19:34:00,
2013-02-04 14:39:00,36.0,18.7,29.96,WNW,285,1.0,2.0,49,0.00,,,0.00,100,WeatherCatV1.13B119,2013-02-04 19:39:00,
2013-02-04 14:44:00,36.1,19.3,29.96,West,279,2.0,2.0,50,0.00,,,0.00,142,WeatherCatV1.13B119,2013-02-04 19:44:00,
2013-02-04 14:49:00,36.2,17.9,29.95,WNW,294,1.0,1.0,47,0.00,,,0.00,204,WeatherCatV1.13B119,2013-02-04 19:49:00,
2013-02-04 14:54:00,36.5,18.7,29.95,East,96,5.0,5.0,48,0.00,,,0.00,253,WeatherCatV1.13B119,2013-02-04 19:54:00,
2013-02-04 14:59:00,36.7,20.3,29.95,West,277,2.0,3.0,51,0.00,,,0.00,179,WeatherCatV1.13B119,2013-02-04 19:59:00,
2013-02-04 15:06:00,37.0,18.7,29.95,WNW,289,0.0,0.0,47,0.00,,,0.00,137,WeatherCatV1.13B119,2013-02-04 20:06:00,
2013-02-04 15:13:00,37.2,19.3,29.95,ESE,121,1.0,1.0,48,0.00,,,0.00,109,WeatherCatV1.13B119,2013-02-04 20:13:00,
2013-02-04 15:18:00,36.8,18.0,29.95,SE,144,2.0,2.0,46,0.00,,,0.00,100,WeatherCatV1.13B119,2013-02-04 20:18:00,
2013-02-04 15:23:00,36.5,19.2,29.95,East,98,0.0,1.0,49,0.00,,,0.00,109,WeatherCatV1.13B119,2013-02-04 20:23:00,
2013-02-04 15:28:00,36.6,19.7,29.95,East,98,0.0,1.0,50,0.00,,,0.00,193,WeatherCatV1.13B119,2013-02-04 20:28:00,
2013-02-04 15:33:00,36.8,19.0,29.95,SE,135,1.0,1.0,48,0.00,,,0.00,158,WeatherCatV1.13B119,2013-02-04 20:33:00,
2013-02-04 15:38:00,36.9,20.0,29.96,SSE,156,0.0,1.0,50,0.00,,,0.00,155,WeatherCatV1.13B119,2013-02-04 20:38:00,
2013-02-04 15:43:00,37.0,20.1,29.96,SE,135,3.0,6.0,50,0.00,,,0.00,128,WeatherCatV1.13B119,2013-02-04 20:43:00,
2013-02-04 15:48:00,36.7,20.3,29.96,WNW,293,1.0,5.0,51,0.00,,,0.00,98,WeatherCatV1.13B119,2013-02-04 20:48:00,
2013-02-04 15:53:00,36.7,21.2,29.96,NW,312,2.0,5.0,53,0.00,,,0.00,111,WeatherCatV1.13B119,2013-02-04 20:53:00,
2013-02-04 15:58:00,36.5,21.0,29.96,North,7,2.0,3.0,53,0.00,,,0.00,93,WeatherCatV1.13B119,2013-02-04 20:58:00,
2013-02-04 16:03:00,36.3,21.3,29.96,North,355,0.0,1.0,54,0.00,,,0.00,76,WeatherCatV1.13B119,2013-02-04 21:03:00,
2013-02-04 16:05:00,36.3,21.7,29.96,NW,324,2.0,2.0,55,0.00,,,0.00,72,WeatherCatV1.13B119,2013-02-04 21:05:00,
2013-02-04 16:10:00,36.0,21.0,29.96,SE,127,0.0,2.0,54,0.00,,,0.00,70,WeatherCatV1.13B119,2013-02-04 21:10:00,
2013-02-04 16:15:00,35.9,22.2,29.96,ENE,59,0.0,2.0,57,0.00,,,0.00,58,WeatherCatV1.13B119,2013-02-04 21:15:00,
2013-02-04 16:20:00,35.9,22.2,29.95,NNW,340,0.0,2.0,57,0.00,,,0.00,44,WeatherCatV1.13B119,2013-02-04 21:20:00,
2013-02-04 16:25:00,35.8,22.5,29.95,North,354,0.0,1.0,58,0.00,,,0.00,33,WeatherCatV1.13B119,2013-02-04 21:25:00,
2013-02-04 16:28:00,35.7,22.4,29.95,North,354,0.0,0.0,58,0.00,,,0.00,46,WeatherCatV1.13B119,2013-02-04 21:28:00,
2013-02-04 16:33:00,35.7,22.4,29.95,NNW,329,2.0,2.0,58,0.00,,,0.00,35,WeatherCatV1.13B119,2013-02-04 21:33:00,
2013-02-04 16:38:00,35.5,21.8,29.95,NNW,334,0.0,2.0,57,0.00,,,0.00,26,WeatherCatV1.13B119,2013-02-04 21:38:00,
2013-02-04 16:43:00,35.4,23.3,29.95,NE,52,2.0,3.0,61,0.00,,,0.00,35,WeatherCatV1.13B119,2013-02-04 21:43:00,
2013-02-04 16:48:00,35.3,23.2,29.95,NE,50,2.0,2.0,61,0.00,,,0.00,26,WeatherCatV1.13B119,2013-02-04 21:48:00,
2013-02-04 16:53:00,35.1,23.4,29.94,NE,51,0.0,2.0,62,0.00,,,0.00,33,WeatherCatV1.13B119,2013-02-04 21:53:00,
2013-02-04 16:58:00,35.0,23.3,29.94,North,351,1.0,2.0,62,0.00,,,0.00,19,WeatherCatV1.13B119,2013-02-04 21:58:00,
2013-02-04 17:03:00,34.9,23.6,29.94,NNW,338,2.0,2.0,63,0.00,,,0.00,12,WeatherCatV1.13B119,2013-02-04 22:03:00,
2013-02-04 17:08:00,34.8,23.9,29.94,NE,41,0.0,1.0,64,0.00,,,0.00,12,WeatherCatV1.13B119,2013-02-04 22:08:00,
2013-02-04 17:13:00,34.6,23.7,29.94,NNE,26,1.0,2.0,64,0.00,,,0.00,9,WeatherCatV1.13B119,2013-02-04 22:13:00,
2013-02-04 17:18:00,34.4,23.9,29.94,NNE,26,0.0,2.0,65,0.00,,,0.00,9,WeatherCatV1.13B119,2013-02-04 22:18:00,
2013-02-04 17:23:00,34.3,23.8,29.93,WNW,298,1.0,3.0,65,0.00,,,0.00,7,WeatherCatV1.13B119,2013-02-04 22:23:00,
2013-02-04 17:28:00,34.2,24.4,29.93,NW,325,1.0,3.0,67,0.00,,,0.00,5,WeatherCatV1.13B119,2013-02-04 22:28:00,
2013-02-04 17:33:00,34.0,24.6,29.93,NNW,335,0.0,1.0,68,0.00,,,0.00,0,WeatherCatV1.13B119,2013-02-04 22:33:00,
2013-02-04 17:38:00,33.9,24.5,29.93,NNW,330,0.0,0.0,68,0.00,,,0.00,0,WeatherCatV1.13B119,2013-02-04 22:38:00,
2013-02-04 17:43:00,33.8,24.7,29.94,NNW,330,0.0,2.0,69,0.00,,,0.00,0,WeatherCatV1.13B119,2013-02-04 22:43:00,
2013-02-04 17:48:00,33.7,25.0,29.94,North,7,0.0,1.0,70,0.00,,,0.00,0,WeatherCatV1.13B119,2013-02-04 22:48:00,
2013-02-04 17:53:00,33.5,24.8,29.94,North,7,0.0,0.0,70,0.00,,,0.00,0,WeatherCatV1.13B119,2013-02-04 22:53:00,
2013-02-04 17:58:00,33.4,25.4,29.94,NNE,17,0.0,0.0,72,0.00,,,0.00,0,WeatherCatV1.13B119,2013-02-04 22:58:00,
2013-02-04 18:03:00,33.4,25.0,29.94,NNE,17,0.0,0.0,71,0.00,,,0.00,0,WeatherCatV1.13B119,2013-02-04 23:03:00,
2013-02-04 18:08:00,33.3,25.3,29.94,NNE,17,0.0,0.0,72,0.00,,,0.00,0,WeatherCatV1.13B119,2013-02-04 23:08:00,
2013-02-04 18:19:00,33.3,25.3,29.93,NNE,17,0.0,0.0,72,0.00,,,0.00,0,WeatherCatV1.13B119,2013-02-04 23:19:00,
2013-02-04 18:24:00,33.2,25.5,29.93,NNE,17,1.0,1.0,73,0.00,,,0.00,0,WeatherCatV1.13B119,2013-02-04 23:24:00,
2013-02-04 18:29:00,33.1,26.4,29.93,NE,34,0.0,1.0,76,0.00,,,0.00,0,WeatherCatV1.13B119,2013-02-04 23:29:00,
2013-02-04 18:33:00,33.0,26.3,29.94,NNE,32,0.0,1.0,76,0.00,,,0.00,0,WeatherCatV1.13B119,2013-02-04 23:33:00,
2013-02-04 18:38:00,32.8,26.4,29.93,NNE,23,0.0,1.0,77,0.00,,,0.00,0,WeatherCatV1.13B119,2013-02-04 23:38:00,
2013-02-04 18:43:00,32.8,27.0,29.94,NNE,23,0.0,0.0,79,0.00,,,0.00,0,WeatherCatV1.13B119,2013-02-04 23:43:00,
2013-02-04 18:48:00,32.6,27.1,29.93,NNE,23,2.0,2.0,80,0.00,,,0.00,0,WeatherCatV1.13B119,2013-02-04 23:48:00,
2013-02-04 18:53:00,32.4,27.5,29.93,NNE,23,0.0,2.0,82,0.00,,,0.00,0,WeatherCatV1.13B119,2013-02-04 23:53:00,
2013-02-04 18:58:00,32.1,27.5,29.94,NE,55,0.0,2.0,83,0.00,,,0.00,0,WeatherCatV1.13B119,2013-02-04 23:58:00,
2013-02-04 19:03:00,31.9,27.3,29.93,NE,55,2.0,2.0,83,0.00,,,0.00,0,WeatherCatV1.13B119,2013-02-05 00:03:00,
2013-02-04 19:08:00,31.7,27.7,29.93,NE,55,0.0,1.0,85,0.00,,,0.00,0,WeatherCatV1.13B119,2013-02-05 00:08:00,
2013-02-04 19:13:00,31.5,27.5,29.93,NE,54,1.0,1.0,85,0.00,,,0.00,0,WeatherCatV1.13B119,2013-02-05 00:13:00,
2013-02-04 19:18:00,31.4,27.7,29.93,NE,40,0.0,2.0,86,0.00,,,0.00,0,WeatherCatV1.13B119,2013-02-05 00:18:00,
2013-02-04 19:23:00,31.3,27.6,29.94,NE,40,2.0,2.0,86,0.00,,,0.00,0,WeatherCatV1.13B119,2013-02-05 00:23:00,
2013-02-04 19:28:00,31.2,27.8,29.94,NNE,22,1.0,1.0,87,0.00,,,0.00,0,WeatherCatV1.13B119,2013-02-05 00:28:00,
2013-02-04 19:32:00,31.2,27.5,29.93,NNE,29,1.0,3.0,86,0.00,,,0.00,0,WeatherCatV1.13B119,2013-02-05 00:32:00,
2013-02-04 19:35:00,31.1,27.7,29.94,NNE,29,0.0,0.0,87,0.00,,,0.00,0,WeatherCatV1.13B119,2013-02-05 00:35:00,
2013-02-04 19:43:00,31.1,27.7,29.93,NE,47,2.0,3.0,87,0.00,,,0.00,0,WeatherCatV1.13B119,2013-02-05 00:43:00,
2013-02-04 19:48:00,31.0,27.6,29.93,North,354,0.0,3.0,87,0.00,,,0.00,0,WeatherCatV1.13B119,2013-02-05 00:48:00,
2013-02-04 19:53:00,30.9,27.5,29.93,NNE,23,2.0,4.0,87,0.00,,,0.00,0,WeatherCatV1.13B119,2013-02-05 00:53:00,
2013-02-04 19:58:00,30.8,27.4,29.93,North,7,1.0,4.0,87,0.00,,,0.00,0,WeatherCatV1.13B119,2013-02-05 00:58:00,
2013-02-04 20:03:00,30.7,27.3,29.93,NE,41,1.0,2.0,87,0.00,,,0.00,0,WeatherCatV1.13B119,2013-02-05 01:03:00,
2013-02-04 20:08:00,30.6,27.2,29.93,NE,46,0.0,3.0,87,0.00,,,0.00,0,WeatherCatV1.13B119,2013-02-05 01:08:00,
2013-02-04 20:13:00,30.6,27.2,29.93,NE,46,0.0,1.0,87,0.00,,,0.00,0,WeatherCatV1.13B119,2013-02-05 01:13:00,
2013-02-04 20:18:00,30.6,27.2,29.93,NE,46,0.0,2.0,87,0.00,,,0.00,0,WeatherCatV1.13B119,2013-02-05 01:18:00,
2013-02-04 20:23:00,30.6,27.2,29.93,NE,46,2.0,2.0,87,0.00,,,0.00,0,WeatherCatV1.13B119,2013-02-05 01:23:00,
2013-02-04 20:28:00,30.6,27.2,29.93,ENE,67,1.0,1.0,87,0.00,,,0.00,0,WeatherCatV1.13B119,2013-02-05 01:28:00,
2013-02-04 20:33:00,30.6,27.2,29.93,ENE,67,0.0,0.0,87,0.00,,,0.00,0,WeatherCatV1.13B119,2013-02-05 01:33:00,
2013-02-04 20:39:00,30.6,27.2,29.93,ENE,65,0.0,1.0,87,0.00,,,0.00,0,WeatherCatV1.13B119,2013-02-05 01:39:00,
2013-02-04 20:44:00,30.6,27.2,29.93,ENE,65,0.0,1.0,87,0.00,,,0.00,0,WeatherCatV1.13B119,2013-02-05 01:44:00,
2013-02-04 20:49:00,30.6,27.2,29.93,ENE,65,0.0,0.0,87,0.00,,,0.00,0,WeatherCatV1.13B119,2013-02-05 01:49:00,
2013-02-04 20:54:00,30.6,27.2,29.93,ENE,65,0.0,0.0,87,0.00,,,0.00,0,WeatherCatV1.13B119,2013-02-05 01:54:00,
2013-02-04 20:59:00,30.6,27.2,29.93,ENE,65,0.0,0.0,87,0.00,,,0.00,0,WeatherCatV1.13B119,2013-02-05 01:59:00,
2013-02-04 21:04:00,30.6,27.2,29.93,ENE,65,0.0,0.0,87,0.00,,,0.00,0,WeatherCatV1.13B119,2013-02-05 02:04:00,
2013-02-04 21:09:00,30.6,27.2,29.93,ENE,65,0.0,0.0,87,0.00,,,0.00,0,WeatherCatV1.13B119,2013-02-05 02:09:00,
2013-02-04 21:14:00,30.6,27.2,29.93,ENE,65,0.0,0.0,87,0.00,,,0.00,0,WeatherCatV1.13B119,2013-02-05 02:14:00,
2013-02-04 21:19:00,30.6,27.2,29.93,ENE,65,0.0,0.0,87,0.00,,,0.00,0,WeatherCatV1.13B119,2013-02-05 02:19:00,
2013-02-04 21:24:00,30.6,27.2,29.93,ENE,65,0.0,0.0,87,0.00,,,0.00,0,WeatherCatV1.13B119,2013-02-05 02:24:00,
2013-02-04 21:29:00,30.6,27.2,29.93,ENE,65,0.0,0.0,87,0.00,,,0.00,0,WeatherCatV1.13B119,2013-02-05 02:29:00,
2013-02-04 21:34:00,30.6,27.2,29.92,ENE,65,0.0,0.0,87,0.00,,,0.00,0,WeatherCatV1.13B119,2013-02-05 02:34:00,
2013-02-04 21:41:00,30.6,27.2,29.92,ENE,65,0.0,0.0,87,0.00,,,0.00,0,WeatherCatV1.13B119,2013-02-05 02:41:00,
2013-02-04 21:46:00,30.6,27.2,29.92,ENE,65,0.0,0.0,87,0.00,,,0.00,0,WeatherCatV1.13B119,2013-02-05 02:46:00,
2013-02-04 21:51:00,30.6,27.2,29.92,ENE,65,0.0,0.0,87,0.00,,,0.00,0,WeatherCatV1.13B119,2013-02-05 02:51:00,
2013-02-04 21:56:00,30.6,27.2,29.92,ENE,65,0.0,0.0,87,0.00,,,0.00,0,WeatherCatV1.13B119,2013-02-05 02:56:00,
2013-02-04 22:01:00,30.6,27.2,29.92,ENE,65,0.0,0.0,87,0.00,,,0.00,0,WeatherCatV1.13B119,2013-02-05 03:01:00,
2013-02-04 22:11:00,30.7,27.3,29.91,ENE,65,0.0,0.0,87,0.00,,,0.00,0,WeatherCatV1.13B119,2013-02-05 03:11:00,
2013-02-04 22:16:00,30.7,27.3,29.91,ENE,65,0.0,0.0,87,0.00,,,0.00,0,WeatherCatV1.13B119,2013-02-05 03:16:00,
2013-02-04 22:24:00,30.6,27.2,29.91,ENE,65,0.0,0.0,87,0.00,,,0.00,0,WeatherCatV1.13B119,2013-02-05 03:24:00,
2013-02-04 22:29:00,30.6,27.2,29.91,ENE,65,0.0,0.0,87,0.00,,,0.00,0,WeatherCatV1.13B119,2013-02-05 03:29:00,
2013-02-04 22:34:00,30.6,27.2,29.91,ENE,65,0.0,0.0,87,0.00,,,0.00,0,WeatherCatV1.13B119,2013-02-05 03:34:00,
2013-02-04 22:39:00,30.5,27.1,29.91,ENE,65,0.0,1.0,87,0.00,,,0.00,0,WeatherCatV1.13B119,2013-02-05 03:39:00,
2013-02-04 22:44:00,30.6,27.2,29.91,ENE,66,1.0,1.0,87,0.00,,,0.00,0,WeatherCatV1.13B119,2013-02-05 03:44:00,
2013-02-04 22:49:00,30.6,27.2,29.91,ENE,65,0.0,0.0,87,0.00,,,0.00,0,WeatherCatV1.13B119,2013-02-05 03:49:00,
2013-02-04 22:54:00,30.6,27.2,29.91,ENE,65,0.0,0.0,87,0.00,,,0.00,0,WeatherCatV1.13B119,2013-02-05 03:54:00,
2013-02-04 22:59:00,30.6,27.2,29.91,ENE,65,0.0,0.0,87,0.00,,,0.00,0,WeatherCatV1.13B119,2013-02-05 03:59:00,
2013-02-04 23:04:00,30.7,27.3,29.91,ENE,65,0.0,2.0,87,0.00,,,0.00,0,WeatherCatV1.13B119,2013-02-05 04:04:00,
2013-02-04 23:08:00,30.7,27.3,29.91,ENE,65,0.0,2.0,87,0.00,,,0.00,0,WeatherCatV1.13B119,2013-02-05 04:08:00,
2013-02-04 23:13:00,30.7,27.3,29.90,East,79,0.0,1.0,87,0.00,,,0.00,0,WeatherCatV1.13B119,2013-02-05 04:13:00,
2013-02-04 23:18:00,30.7,27.3,29.90,East,79,0.0,1.0,87,0.00,,,0.00,0,WeatherCatV1.13B119,2013-02-05 04:18:00,
2013-02-04 23:23:00,30.7,27.3,29.90,East,79,0.0,0.0,87,0.00,,,0.00,0,WeatherCatV1.13B119,2013-02-05 04:23:00,
2013-02-04 23:28:00,30.6,27.2,29.90,East,79,0.0,0.0,87,0.00,,,0.00,0,WeatherCatV1.13B119,2013-02-05 04:28:00,
2013-02-04 23:33:00,30.6,27.2,29.90,ENE,71,0.0,0.0,87,0.00,,,0.00,0,WeatherCatV1.13B119,2013-02-05 04:33:00,
2013-02-04 23:38:00,30.6,27.2,29.90,ENE,71,0.0,0.0,87,0.00,,,0.00,0,WeatherCatV1.13B119,2013-02-05 04:38:00,
2013-02-04 23:43:00,30.6,27.2,29.90,ENE,71,0.0,0.0,87,0.00,,,0.00,0,WeatherCatV1.13B119,2013-02-05 04:43:00,
2013-02-04 23:48:00,30.6,27.2,29.90,ENE,71,0.0,0.0,87,0.00,,,0.00,0,WeatherCatV1.13B119,2013-02-05 04:48:00,
2013-02-04 23:53:00,30.6,27.2,29.89,ENE,71,0.0,0.0,87,0.00,,,0.00,0,WeatherCatV1.13B119,2013-02-05 04:53:00,
2013-02-04 23:58:00,30.6,27.2,29.89,ENE,71,0.0,0.0,87,0.00,,,0.00,0,WeatherCatV1.13B119,2013-02-05 04:58:00,